Location: Niverville
(49.6028°N, 97.0419°W)
Time: 15:41:19
(UTC-05:00)

Daily predictions for brighter satellites

Satellite Brightness Start Highest point End
(mag) Time Altitude Azimuth Time Altitude Azimuth Time Altitude Azimuth
Meteor 2-9 Rocket 4.3 21:47:32 10° N 21:52:56 62° ENE 21:58:26 10° SSE
USA 186 4.5 21:54:00 10° SW 21:56:20 18° W 21:58:39 10° NW
Cosmos 1238 Rocket 4.4 21:49:58 10° SSE 21:56:23 49° E 22:02:36 10° NNE
Cosmos 1666 2.6 21:53:06 10° N 21:56:53 78° E 22:00:38 10° SSE
Aureole 1 Rocket 3.3 21:54:28 10° SSE 21:57:12 25° ESE 21:59:45 10° NE
ISS -1.7 21:56:39 10° SE 21:57:16 10° SE 21:57:53 10° ESE
NOSS 5 (C) 4.3 21:55:28 10° SW 21:58:49 81° NW 22:01:53 10° NE
DNEPR-1 R/B 3.7 21:55:25 10° NW 21:59:38 70° SW 22:04:05 10° SSE
Cosmos 1371 Rocket 4.3 21:57:18 10° NNW 22:02:35 57° ENE 22:07:47 10° SE
NOSS 2-2 (E) 3.6 21:58:55 10° SSW 22:02:58 60° SE 22:07:52 10° NE
Meteor 2-4 Rocket 3.9 21:59:05 10° S 22:04:35 57° E 22:10:17 10° NNE
DEBRIS 4.4 22:03:10 10° SSW 22:07:03 47° SE 22:20:07 10° ENE
Cosmos 921 Rocket 4.2 22:04:39 10° N 22:08:44 32° ENE 22:12:45 10° ESE
Cosmos 1437 3.5 22:06:51 10° SSW 22:10:01 55° WNW 22:13:13 10° N
Cosmos 923 Rocket 4.0 22:05:00 10° SSW 22:10:18 75° ESE 22:15:37 10° NNE
Meteor 1-29 3.7 22:08:15 10° N 22:11:35 55° WNW 22:14:53 10° SSW
Cosmos 1536 Rocket 4.2 22:07:58 10° SSW 22:12:14 59° WNW 22:16:33 10° N
Lacrosse 5 rocket 3.3 22:10:06 10° WNW 22:14:17 34° N 22:18:33 10° ENE
Cosmos 1606 Rocket 4.0 22:10:35 10° N 22:14:45 45° ENE 22:18:50 10° SSE
Cosmos 2184 Rocket 4.3 22:08:39 10° NNW 22:15:01 73° W 22:21:18 10° S
Cosmos 2074 Rocket 4.3 22:08:55 10° NNW 22:15:09 70° W 22:21:21 10° S
TELKOM 3 3.0 22:13:12 10° W 22:15:27 80° S 22:18:23 10° ESE
USA 245 2.4 22:16:10 11° SSE 22:18:38 53° ENE 22:20:58 10° N
YAOGAN 6 3.9 22:18:30 10° SSW 22:21:45 36° W 22:25:03 10° NNW
YAOGAN 11 4.1 22:18:57 10° SSE 22:23:15 88° ENE 22:27:37 10° NNW
Cosmos 1726 Rocket 3.9 22:21:29 10° N 22:25:43 49° ENE 22:29:29 12° SSE
Meteor 1-4 Rocket 4.4 22:25:15 10° NNE 22:27:54 19° ENE 22:30:20 11° ESE
ERS-1 Rocket 3.6 22:23:04 10° S 22:28:00 55° W 22:32:57 10° NNW
Cosmos 405 Rocket 3.5 22:25:44 10° SSW 22:29:25 54° WNW 22:33:13 10° N
RESURS DK-1 4.4 22:26:55 10° WSW 22:30:40 32° NW 22:34:27 10° NNE
Cosmos 2058 Rocket 3.6 22:28:05 10° N 22:32:19 43° ENE 22:35:51 14° SE
MetOp-A 4.4 22:27:25 10° S 22:32:45 68° WSW 22:38:07 10° NNW
Meteor 1-23 Rocket 4.2 22:28:23 10° S 22:33:56 74° E 22:39:33 10° NNE
Cosmos 1818 4.0 22:28:42 10° SW 22:34:08 70° NW 22:39:36 10° NE
Intercosmos 24 4.0 22:29:46 10° NNW 22:34:12 77° W 22:37:47 10° S
Cosmos 1980 Rocket 3.7 22:32:13 10° NNW 22:36:58 26° NE 22:41:40 10° E
H-2A R/B 2.0 22:33:29 12° SSE 22:38:00 70° ENE 22:43:02 10° N
Meteor 1-15 Rocket 4.3 22:32:40 10° NNW 22:38:20 84° W 22:43:53 10° S
CARTOSAT-1 4.4 22:36:38 14° SE 22:39:58 38° ENE 22:43:59 10° N
Cosmos 1025 Rocket 2.9 22:36:36 10° S 22:40:53 85° E 22:45:10 10° N
Cosmos 1441 Rocket 3.4 22:38:18 10° SSW 22:42:02 72° WNW 22:45:47 10° N
Cosmos 192 4.3 22:37:28 10° SSW 22:42:22 77° ESE 22:47:18 10° NNE
MOS 1-B Rocket 4.4 22:37:19 10° S 22:43:00 64° WSW 22:49:29 10° NNW
Cosmos 2112 Rocket 4.0 22:37:53 10° SSW 22:43:06 89° WNW 22:48:21 10° NNE
Cosmos 2322 Rocket 4.5 22:41:14 10° N 22:44:43 16° NNE 22:48:12 10° ENE
NOSS 2-2 (D) 3.9 22:41:53 10° SW 22:46:01 74° NW 22:51:02 10° NE
Cosmos 1624 Rocket 4.1 22:41:28 10° NNW 22:46:45 81° WSW 22:51:17 14° SSE
CENTAUR R/B 4.2 22:41:11 10° NW 22:48:10 36° WSW 22:55:33 10° S
SeaSat 1 4.4 22:48:00 10° E 22:51:40 21° NE 22:55:21 10° N
SL-27 R/B 2.8 22:50:49 10° SSW 22:54:27 70° WNW 22:58:07 10° NNE
Nadezhda 1 Rocket 4.5 22:48:43 10° SSW 22:55:02 65° WNW 23:01:26 10° N
SL-08 RB Rocket 4.0 22:52:51 12° S 22:56:58 61° WSW 23:01:26 10° NNW
Cosmos 2154 Rocket 4.4 22:52:20 10° NNW 22:58:38 64° W 23:04:53 10° S
Nimbus 7 Rocket 4.4 22:53:13 10° NNE 22:59:18 77° ESE 23:05:22 10° SSW
ARGOS 3.8 22:55:17 10° S 23:00:33 53° W 23:05:53 10° NNW
COSMOS 2406 3.8 22:55:53 10° SW 23:01:33 61° WNW 23:07:14 10° NNE
Iridium 43 3.2 23:00:20 10° N 23:02:35 67° E 23:03:14 38° SSE
SL-8 Rocket 4.1 22:56:31 10° N 23:02:46 71° E 23:07:42 17° SSE
Landsat 7 3.8 23:00:33 17° SSE 23:04:16 90° SSW 23:09:04 10° NNW
NOSS 2-2 (C) 4.5 23:00:46 10° WSW 23:04:54 55° NW 23:09:55 10° NE
H-2A R/B 2.3 23:01:56 19° SSE 23:05:06 67° ENE 23:09:37 10° N
Cosmos 2056 Rocket 3.8 23:00:21 10° NNW 23:05:30 61° WSW 23:09:30 16° S
SPOT 5 3.6 23:02:22 10° S 23:06:26 40° W 23:10:34 10° NNW
Cosmos 2278 3.7 23:00:43 10° NNW 23:06:28 85° WSW 23:10:40 19° SSE
Cosmos 1680 Rocket 4.4 23:01:42 10° SW 23:06:48 52° WNW 23:11:55 10° NNE
Cosmos 2366 rocket 4.2 23:00:42 10° N 23:06:49 58° ENE 23:11:14 19° SSE
USA 234 4.0 23:04:13 10° E 23:10:32 53° NNE 23:16:51 10° WNW
Cosmos 2082 Rocket 2.9 23:09:49 19° SSE 23:13:11 34° ESE 23:18:14 10° NE
Cosmos 1626 Rocket 4.2 23:14:23 23° SE 23:16:29 37° E 23:20:28 10° NNE
CZ-4B R/B 4.3 23:11:56 10° NNE 23:16:31 34° E 23:19:06 22° SE
Terra 1.8 23:16:04 21° SSE 23:19:19 89° E 23:24:08 10° NNW
Tiangong 2 3.5 23:17:35 10° SW 23:17:53 12° SSW 23:17:53 12° SSW
Cosmos 1437 Rocket 4.2 23:18:20 10° NNW 23:21:43 30° W 23:24:53 11° SSW
COSMOS 2487 2.7 23:21:12 27° SSE 23:22:46 48° ESE 23:26:15 10° NNE
Cosmos 2369 3.9 23:19:22 10° NNW 23:25:04 65° WSW 23:28:55 21° S
Cosmos 1420 Rocket 4.2 23:21:32 10° NNW 23:26:48 64° ENE 23:30:02 23° SE
Spot 4 4.0 23:24:26 23° SE 23:27:18 61° ENE 23:32:04 10° N
Cosmos 1953 4.1 23:25:52 10° NNE 23:29:05 22° ENE 23:30:57 16° ESE
Cosmos 967 Rocket 4.4 23:25:40 10° SSW 23:31:53 71° ESE 23:38:09 10° NE
ISS -3.7 23:29:56 10° SW 23:33:08 49° SSE 23:36:20 10° ENE
SL-08 R/B 4.4 23:27:45 10° N 23:33:56 86° E 23:38:03 22° S
Cosmos 1697 Rocket 2.7 23:29:02 10° NNW 23:34:42 84° ENE 23:38:08 25° SSE
SL-16 R/B 3.8 23:30:04 10° NNW 23:34:53 27° NE 23:39:41 10° ESE
IGS 5A 3.7 23:33:12 24° S 23:35:36 66° WSW 23:39:46 10° NNW
Cosmos 1452 Rocket 3.6 23:32:30 10° NNW 23:37:47 75° WSW 23:40:54 25° SSE
Iridium 2 4.2 23:35:17 10° N 23:38:58 45° E 23:40:20 31° SE
Cosmos 1271 Rocket 3.3 23:35:32 10° N 23:39:16 45° ENE 23:40:49 29° SE
Cosmos 2228 3.8 23:36:52 10° NNW 23:41:01 46° W 23:43:46 19° SSW
DELTA 2 DEB (DPAF) 4.2 23:39:21 28° SSE 23:41:41 73° ENE 23:46:11 10° N
Cosmos 1892 Rocket 4.5 23:38:45 10° SSW 23:43:01 46° WNW 23:47:18 10° N
Cosmos 2218 Rocket 4.1 23:37:00 10° NNW 23:43:09 74° W 23:47:26 21° S
deb Chang Zheng 4 3.5 23:41:51 10° NNE 23:46:12 87° ESE 23:48:47 24° SSW
Cosmos 921 Rocket 4.3 23:42:59 10° NW 23:47:02 33° W 23:49:41 18° SSW
Cosmos 1602 Rocket 3.5 23:47:45 29° S 23:49:56 77° E 23:54:16 10° NNE
ATLAS CENTAUR R/B 3.3 23:49:18 10° NNW 23:52:15 21° NNE 23:55:08 10° E
Lacrosse 5 rocket 3.0 23:50:07 10° NW 23:54:27 38° NNE 23:58:48 10° E
